Tracking 22779 objects as of 12-Apr-2021
HD Live streaming from Space Station
objects crossing your sky now

GEOS 2

Track GEOS 2 now!
GEOS 2 is classified as:


NORAD ID: 10981
Int'l Code: 1978-071A
Perigee: 36,029.3 km
Apogee: 36,060.4 km
Inclination: 10.1 °
Period: 1,448.9 minutes
Semi major axis: 42415 km
RCS: 2.0304 m2 (large)
Launch date: July 14, 1978
Source: European Space Agency (ESA)
Launch site: AIR FORCE EASTERN TEST RANGE (AFETR)
aabbcc
Your satellite tracking list
Your tracking list is empty




NASA's NSSDC Master Catalog

Two Line Element Set (TLE):
1 10981U 78071A   21101.90902507 -.00000292  00000-0  00000-0 0  9993
2 10981  10.1363 306.7597 0003664  14.9525   3.0149  0.99382575155193
Source of the keplerian elements: AFSPC